Temperature
20 19 18 18 18 17 17 17 16 16 16 16 15 15 15 15 15 15 15 15 15 15 15 15 15 14 14 14 14 14 14 14 14 15 15 15 15 15 15 14 14 14 14
20 19 18 18 18 17 17 17 16 16 16 15 15 15 15 15 15 14 14 14 14 14 14 14 14 14 14 14 14 14 14 14 14 14 14 14 14 14 14 14 14 14 14
20 19 18 18 18 17 17 17 16 16 16 15 15 15 15 14 14 14 14 14 14 14 14 14 14 14 14 14 14 14 14 14 14 14 14 14 14 14 14 14 14 14 14
20 19 19 18 18 17 17 17 16 16 16 15 15 15 15 14 14 14 14 14 14 14 14 14 14 14 14 14 13 13 13 13 13 13 13 13 13 13 13 13 13 13 13
20 19 18 18 18 17 17 16 16 16 16 15 15 15 15 14 14 14 14 14 14 14 14 14 13 13 13 13 13 13 13 13 13 13 13 13 13 13 13 13 13 13 13
19 19 18 18 17 17 17 16 16 16 16 15 15 15 15 14 14 14 14 14 13 13 13 13 13 13 13 13 13 13 13 13 13 13 13 13 13 13 13 13 13 13 13
19 18 18 17 17 16 16 16 16 16 15 15 15 15 15 14 14 14 14 13 13 13 13 13 13 13 13 12 12 12 12 12 12 12 12 13 13 13 13 12 12 12 12
19 18 17 17 16 16 16 15 15 15 15 15 15 15 14 14 14 14 13 13 13 13 13 13 13 12 12 12 12 12 12 12 12 12 12 12 12 12 12 12 12 12 12
18 18 17 16 16 16 15 15 15 15 15 15 14 14 14 14 14 14 13 13 13 13 13 13 12 12 12 12 12 12 12 12 12 12 12 12 12 12 12 12 12 12 11
18 17 17 16 16 15 15 15 15 14 14 14 14 14 14 14 13 13 13 13 13 13 12 12 12 12 12 11 11 11 11 11 11 11 11 11 11 11 11 11 11 11 11
18 17 17 16 15 15 15 14 14 14 14 14 14 14 13 13 13 13 13 13 13 12 12 12 12 11 11 11 11 11 11 11 11 11 10 10 11 11 11 11 11 11 11
18 17 16 16 15 15 14 14 14 14 13 13 13 13 13 13 13 12 12 12 12 12 12 11 11 11 11 11 11 10 10 10 10 10 10 10 10 10 10 10 10 10 10
17 17 16 15 15 14 14 14 13 13 13 13 13 13 12 12 12 12 12 12 11 11 11 11 11 11 11 10 10 10 10 10 10 10 10 10 10 10 10 10 10 10 10
16 16 15 15 14 14 14 13 13 13 13 13 12 12 12 12 11 11 11 11 11 11 10 10 10 10 10 10 10 9 9 9 9 9 9 9 9 9 9 9 9 9 9
15 15 15 14 14 13 13 13 13 13 12 12 12 12 11 11 11 11 10 10 10 10 10 10 10 10 9 9 9 9 9 9 9 9 9 9 9 9 9 9 9 9 9
15 14 14 14 13 13 13 13 12 12 12 12 12 11 11 11 10 10 10 10 10 9 9 9 9 9 9 9 9 9 9 9 9 8 8 8 8 8 8 8 8 8 8
14 14 13 13 13 13 12 12 12 12 11 11 11 11 11 10 10 10 10 9 9 9 9 9 9 9 9 8 8 8 8 8 8 8 8 8 8 8 8 8 8 8 8
13 13 13 13 12 12 12 12 11 11 11 11 11 11 10 10 10 9 9 9 9 9 8 8 8 8 8 8 8 8 8 8 8 7 7 8 8 8 8 8 8 8 8
13 13 12 12 12 12 11 11 11 11 10 10 10 10 10 10 9 9 9 9 8 8 8 8 8 8 8 8 8 8 7 7 7 7 7 7 7 7 7 7 7 7 7
12 12 12 12 11 11 11 10 10 10 10 10 10 10 9 9 9 9 8 8 8 8 7 7 7 7 7 7 7 7 7 7 7 7 7 7 7 7 7 7 7 7 7
12 12 11 11 11 11 10 10 10 10 10 10 9 9 9 8 8 8 8 8 8 7 7 7 7 7 7 7 7 7 7 7 7 7 7 7 7 7 6 6 6 6 6
11 11 11 10 10 10 10 10 10 10 9 9 9 9 8 8 8 8 8 7 7 7 7 6 6 6 6 6 6 6 6 6 6 6 6 6 6 6 6 6 6 6 6
11 10 10 10 10 10 9 9 9 9 9 9 9 8 8 8 7 7 7 7 7 6 6 6 6 6 6 6 6 6 6 6 6 6 6 5 5 5 6 6 5 5 5
10 10 10 9 9 9 9 9 9 9 9 8 8 8 7 7 7 7 7 7 6 6 6 6 6 6 6 6 6 6 6 6 6 5 5 5 5 5 5 5 5 5 5
9 9 9 9 9 9 8 8 9 9 8 8 8 7 7 7 7 7 7 6 6 6 6 6 6 6 6 6 6 6 6 5 5 5 5 5 5 5 5 5 5 5 5
9 9 8 8 8 8 8 8 8 8 8 7 7 7 7 7 7 7 6 6 6 6 6 6 6 5 5 5 5 5 5 5 5 5 5 5 5 4 4 4 4 4 4
Wind_Speed
10 9 8 8 7 6 6 7 6 5 4 3 3 3 2 2 3 2 4 4 6 6 4 3 3 4 4 3 3 3 3 2 2 2 2 2 1 3 2 2 2 3 3
9 9 8 8 7 6 5 6 6 5 5 3 3 2 3 2 2 2 3 4 5 5 4 3 2 3 2 3 3 3 2 2 2 1 1 1 2 3 2 2 2 2 2
9 10 9 8 7 6 6 5 6 6 6 5 3 3 2 2 2 2 1 2 4 4 4 3 2 2 2 2 2 2 2 1 2 3 2 1 0 2 2 2 2 2 2
8 9 8 8 8 7 6 5 6 6 6 6 4 4 3 2 2 2 2 1 2 3 3 3 3 2 2 2 2 2 1 1 1 2 2 1 0 0 1 2 1 2 2
7 8 8 8 8 8 6 5 5 5 5 5 5 3 2 2 2 2 2 2 1 2 2 2 2 2 2 2 2 2 2 1 1 1 1 2 2 1 0 1 2 2 1
7 7 7 6 5 6 5 5 4 4 4 4 4 4 3 3 3 3 2 1 1 1 2 2 2 2 1 1 1 1 2 2 1 1 1 1 1 1 1 1 1 1 1
7 7 7 6 5 6 5 5 5 4 3 3 3 3 3 3 4 3 2 2 1 1 0 1 1 1 1 1 1 1 1 2 1 1 1 1 1 1 1 1 1 1 1
7 7 8 7 6 6 5 4 4 3 3 2 2 3 4 2 2 2 2 2 2 1 1 1 1 1 2 2 1 1 2 2 2 3 2 2 1 1 1 1 1 2 1
7 8 8 7 7 6 5 5 4 3 2 2 1 2 3 2 2 2 2 1 1 1 1 1 1 1 1 2 1 1 2 2 2 2 2 2 2 2 2 1 0 1 2
6 8 7 7 6 6 5 4 4 3 2 2 2 2 2 2 2 2 1 1 2 2 1 1 1 1 1 2 2 1 1 2 1 1 2 2 2 2 2 2 2 1 2
6 7 6 6 6 6 6 5 4 3 2 2 2 2 2 2 2 2 1 1 1 2 1 0 1 1 1 2 2 2 2 2 2 2 2 2 2 2 2 2 2 2 1
5 6 6 6 5 5 5 5 4 3 2 2 2 2 2 2 2 2 1 1 1 1 1 0 1 2 2 2 2 2 2 2 2 2 2 2 2 2 2 2 2 2 2
6 6 5 5 5 4 4 4 4 3 3 2 2 2 2 2 1 1 1 1 1 1 2 1 1 1 1 1 2 2 2 2 2 2 2 2 2 2 2 2 2 2 2
5 5 4 3 3 4 3 4 3 3 3 3 3 2 2 1 1 1 1 1 1 1 1 1 1 2 2 2 2 2 2 2 2 2 2 2 2 2 2 2 2 2 2
3 3 3 2 2 2 3 3 3 3 4 4 3 2 2 1 1 1 0 1 1 2 1 1 1 1 2 2 2 2 2 2 1 1 2 2 3 4 3 3 2 2 1
2 1 2 2 2 2 2 2 2 3 3 3 3 2 3 2 1 1 1 1 1 1 2 2 1 1 1 2 3 2 2 1 1 1 1 1 2 4 5 6 4 3 2
1 1 1 0 1 1 1 2 2 2 2 3 2 2 2 2 1 1 1 1 0 1 1 1 1 1 2 2 2 4 3 1 1 1 1 2 3 4 3 4 5 4 4
1 1 0 0 0 0 0 1 2 2 2 3 2 2 2 1 1 1 1 1 1 1 0 0 0 1 1 2 2 4 2 1 1 2 1 1 2 3 4 3 2 3 3
2 1 1 0 1 1 1 1 2 2 2 2 2 2 2 2 1 1 2 1 1 1 1 1 1 1 0 1 2 3 2 1 2 2 3 2 1 5 6 1 1 2 3
2 2 1 1 1 1 1 1 2 2 2 2 2 2 1 2 2 2 2 1 1 1 1 1 1 1 1 0 2 2 1 1 1 1 2 3 3 4 4 1 1 2 3
2 2 2 1 1 1 1 1 1 2 1 1 2 2 2 2 2 2 1 1 1 1 1 1 1 1 1 1 0 2 1 1 1 2 1 2 3 4 4 2 1 3 3
2 3 2 1 1 1 1 1 1 1 2 2 2 2 2 2 2 2 1 1 1 1 1 1 1 1 1 1 1 1 3 2 2 2 1 1 3 4 4 2 3 4 4
2 2 2 1 2 2 1 1 1 2 2 2 2 2 2 2 2 2 2 2 1 1 2 1 1 1 1 1 1 2 4 4 2 2 2 3 3 3 3 3 3 3 2
2 2 2 2 1 2 2 2 2 2 2 2 2 2 1 1 1 1 1 1 1 1 1 1 1 1 0 0 1 1 2 3 3 2 3 3 3 3 3 3 3 2 2
1 2 1 1 1 1 1 2 2 2 2 2 1 1 1 1 1 1 1 1 1 2 2 2 2 2 2 2 1 1 2 2 2 2 1 1 1 2 2 2 2 2 1
1 1 1 1 1 1 1 1 1 1 2 1 1 1 1 1 1 2 2 3 2 2 1 1 1 0 0 1 1 2 3 4 3 1 2 2 2 2 2 2 1 1 1
Wind_Direction
157 154 152 151 150 148 145 138 135 128 119 107 104 101 94 84 75 64 50 50 56 51 51 45 41 43 42 33 34 40 23 17 17 30 13 3 28 66 54 52 56 58 72
156 155 158 160 159 152 150 145 142 134 125 118 118 120 110 101 100 73 41 47 56 51 53 59 59 59 51 29 31 41 24 1 6 14 23 4 6 10 44 61 52 39 48
168 164 164 162 156 154 154 148 143 136 132 130 126 120 105 102 103 115 74 44 54 54 48 47 57 57 61 44 35 30 38 10 349 11 42 62 312 328 359 46 49 33 29
164 161 165 163 159 157 156 156 147 146 143 137 140 143 149 158 156 146 136 114 76 68 53 45 50 58 54 40 26 34 28 51 358 356 12 31 78 106 323 336 29 34 32
159 159 161 164 163 157 157 158 148 140 136 145 150 153 154 146 135 123 113 115 102 83 74 74 63 57 44 37 25 24 11 31 34 356 342 345 352 343 184 285 325 353 2
157 153 146 141 138 135 138 140 132 130 136 154 150 155 152 143 127 116 124 121 93 66 51 60 68 69 35 29 27 15 6 356 360 348 352 344 339 311 317 263 275 283 282
149 148 141 137 133 123 128 137 139 139 133 141 141 144 138 144 137 139 138 136 131 100 45 63 79 76 50 39 46 8 354 348 355 345 330 334 315 312 303 287 280 276 270
148 150 143 140 140 134 130 125 129 130 136 153 163 148 131 128 129 137 140 148 147 132 119 87 56 44 43 26 44 18 353 1 5 358 355 338 327 340 323 288 289 302 292
151 148 140 144 144 141 139 135 125 118 129 137 128 120 128 125 120 116 111 128 122 115 99 91 96 71 62 53 47 38 9 11 18 358 358 351 340 334 328 326 263 217 272
145 142 144 149 147 145 144 136 130 137 141 145 134 101 83 79 87 103 106 100 106 105 92 81 69 64 56 48 48 41 25 15 9 356 351 350 337 331 339 333 322 292 230
144 145 145 146 145 144 145 140 139 138 125 112 101 100 96 78 62 55 56 66 81 109 135 174 109 86 65 43 41 22 25 13 11 359 356 348 349 344 339 343 335 324 306
133 130 137 144 143 144 145 142 142 137 130 114 108 108 99 101 99 78 51 47 33 41 82 60 65 59 46 40 35 5 6 6 0 347 8 347 351 346 343 342 324 312 303
129 128 128 139 139 142 145 145 141 141 136 125 110 97 96 97 99 102 85 67 58 53 43 39 63 64 53 38 18 13 356 349 355 351 359 351 8 350 344 332 323 312 318
117 122 126 126 140 147 143 144 144 153 152 147 141 135 121 97 93 70 76 72 60 84 65 34 45 55 55 46 24 357 348 354 3 358 354 358 20 358 334 321 319 320 322
114 120 124 136 135 146 150 153 161 162 162 157 147 145 137 125 115 104 47 56 36 42 65 43 29 52 60 34 30 2 348 345 347 355 352 1 17 15 357 343 334 335 322
106 117 136 148 167 163 163 173 163 163 157 149 146 153 148 149 198 148 100 61 55 37 53 41 25 52 47 31 19 8 322 319 314 310 329 345 20 18 4 358 354 354 328
65 98 116 141 170 172 178 182 166 148 146 139 139 146 149 158 189 162 128 121 116 62 57 38 20 71 100 51 9 348 319 304 317 336 340 346 6 15 352 342 342 335 329
77 66 102 145 136 135 91 141 145 134 152 157 157 154 154 172 184 157 166 166 166 116 115 160 316 31 52 47 14 343 322 319 355 3 1 27 12 357 350 333 337 329 315
72 78 45 35 116 114 118 135 156 154 163 157 163 168 172 175 166 175 185 182 179 206 225 199 179 145 139 28 11 1 313 341 356 8 7 18 9 343 344 352 307 312 312
71 61 46 42 74 114 134 170 184 170 167 155 147 149 164 174 177 189 190 192 181 199 212 217 208 173 173 125 11 352 312 323 320 325 353 8 0 350 352 348 311 304 299
64 61 52 50 33 111 146 181 176 170 151 129 134 144 167 184 170 166 167 174 181 195 208 215 202 198 173 143 36 351 299 277 287 295 318 335 337 333 324 327 288 286 304
64 76 67 43 42 83 116 129 132 134 112 112 134 149 156 173 161 161 175 180 192 210 228 215 223 215 183 166 219 323 327 320 262 269 271 275 301 306 303 308 323 319 317
62 76 87 62 49 51 78 103 104 112 119 125 123 146 154 144 150 169 180 185 200 212 226 214 219 234 196 185 253 282 304 314 302 272 268 266 273 282 282 285 301 313 297
48 75 96 96 74 47 48 75 106 110 119 139 139 127 125 125 131 137 154 169 199 216 216 222 232 233 200 172 212 248 270 292 294 298 291 282 273 269 270 278 273 268 265
57 81 115 130 113 84 57 56 86 124 131 130 128 114 99 112 114 106 92 162 192 193 203 226 223 213 222 260 301 292 260 261 263 289 283 267 259 256 256 257 252 247 254
89 103 126 124 129 117 104 78 50 121 140 133 124 106 98 93 99 106 61 33 70 112 152 187 188 238 300 16 356 313 302 292 294 303 257 249 249 242 242 243 252 253 252
Height
1506 1508 1511 1513 1515 1517 1519 1519 1521 1522 1523 1523 1524 1525 1526 1526 1527 1528 1528 1529 1529 1529 1529 1529 1529 1529 1529 1529 1529 1529 1529 1529 1529 1529 1529 1529 1529 1529 1529 1529 1529 1529 1529
1504 1506 1509 1512 1514 1516 1517 1519 1520 1521 1522 1523 1524 1525 1526 1526 1527 1528 1528 1529 1529 1529 1529 1529 1529 1529 1529 1529 1529 1529 1529 1529 1529 1529 1529 1529 1530 1529 1529 1529 1529 1529 1529
1501 1505 1507 1510 1512 1514 1516 1518 1519 1520 1521 1522 1524 1525 1525 1526 1527 1527 1528 1528 1529 1529 1529 1529 1529 1529 1529 1529 1529 1529 1529 1529 1529 1529 1530 1530 1529 1529 1529 1529 1528 1528 1528
1499 1502 1505 1508 1510 1512 1514 1517 1518 1519 1520 1522 1523 1523 1524 1525 1526 1527 1527 1528 1528 1528 1528 1528 1528 1529 1529 1529 1529 1529 1529 1528 1528 1529 1529 1530 1530 1529 1529 1529 1528 1528 1528
1497 1500 1503 1506 1508 1510 1513 1515 1517 1518 1520 1520 1521 1522 1523 1524 1525 1526 1527 1527 1527 1527 1527 1527 1527 1528 1528 1528 1528 1528 1528 1528 1528 1528 1528 1528 1528 1529 1528 1528 1527 1527 1527
1495 1498 1501 1504 1506 1509 1511 1513 1515 1517 1518 1519 1520 1521 1522 1523 1524 1525 1525 1526 1526 1526 1527 1527 1527 1526 1527 1527 1527 1527 1527 1527 1527 1527 1527 1527 1527 1527 1527 1527 1526 1525 1525
1494 1497 1499 1502 1505 1506 1509 1511 1513 1514 1516 1518 1519 1519 1520 1521 1522 1523 1524 1524 1525 1525 1525 1525 1525 1525 1525 1525 1525 1525 1525 1525 1525 1525 1525 1526 1526 1526 1526 1525 1525 1524 1524
1492 1495 1498 1500 1503 1504 1507 1509 1511 1513 1514 1516 1517 1518 1519 1520 1521 1522 1522 1523 1523 1523 1524 1524 1524 1524 1524 1524 1524 1523 1524 1524 1524 1524 1524 1524 1524 1524 1524 1524 1523 1522 1522
1491 1494 1496 1499 1502 1504 1505 1507 1509 1511 1512 1514 1515 1516 1517 1518 1519 1520 1520 1520 1521 1522 1522 1522 1522 1522 1522 1522 1522 1522 1522 1522 1522 1522 1521 1521 1521 1521 1521 1521 1522 1522 1520
1491 1493 1496 1498 1500 1502 1504 1506 1508 1509 1511 1512 1513 1514 1515 1516 1517 1517 1518 1519 1519 1519 1520 1520 1520 1520 1520 1520 1520 1520 1520 1520 1520 1519 1519 1519 1519 1519 1519 1519 1519 1519 1519
1490 1492 1495 1498 1500 1502 1503 1505 1506 1508 1509 1510 1511 1512 1513 1513 1514 1515 1516 1516 1517 1517 1517 1518 1518 1518 1518 1518 1518 1517 1518 1517 1517 1517 1517 1517 1517 1516 1516 1516 1516 1516 1516
1489 1492 1494 1496 1499 1500 1502 1503 1505 1506 1507 1508 1509 1510 1511 1511 1511 1512 1513 1514 1514 1514 1515 1515 1515 1516 1516 1516 1516 1515 1515 1515 1515 1515 1515 1514 1514 1514 1514 1513 1513 1513 1513
1488 1491 1493 1495 1496 1498 1500 1501 1502 1504 1505 1506 1507 1508 1508 1508 1509 1509 1510 1511 1511 1511 1512 1512 1513 1513 1513 1513 1513 1513 1513 1513 1513 1513 1512 1512 1512 1511 1511 1511 1511 1511 1511
1487 1489 1491 1493 1494 1496 1497 1499 1500 1501 1503 1504 1505 1505 1506 1506 1506 1507 1507 1507 1508 1508 1508 1509 1510 1510 1510 1510 1510 1510 1510 1510 1510 1510 1510 1510 1510 1509 1509 1509 1508 1508 1508
1486 1488 1489 1491 1492 1494 1495 1496 1498 1499 1500 1501 1502 1503 1503 1504 1504 1505 1505 1505 1505 1506 1506 1506 1507 1507 1507 1507 1507 1507 1508 1507 1507 1507 1508 1508 1507 1507 1507 1506 1506 1506 1505
1485 1487 1488 1489 1490 1491 1493 1494 1495 1496 1497 1498 1499 1500 1501 1501 1502 1502 1502 1502 1503 1503 1503 1503 1504 1504 1504 1505 1505 1505 1505 1505 1505 1505 1505 1505 1505 1505 1504 1504 1504 1504 1503
1484 1485 1486 1487 1488 1489 1490 1491 1492 1493 1494 1495 1496 1497 1497 1498 1498 1499 1499 1499 1500 1500 1500 1501 1501 1501 1502 1502 1502 1502 1502 1502 1502 1502 1502 1502 1502 1502 1502 1501 1501 1501 1501
1482 1483 1484 1485 1486 1487 1487 1488 1489 1490 1491 1492 1493 1493 1494 1494 1495 1495 1496 1496 1497 1497 1498 1498 1499 1499 1499 1499 1499 1499 1500 1500 1500 1500 1500 1500 1499 1499 1499 1498 1498 1497 1497
1481 1482 1482 1483 1483 1484 1485 1485 1486 1488 1488 1489 1490 1490 1491 1491 1491 1492 1493 1493 1494 1494 1495 1495 1496 1496 1496 1496 1496 1496 1496 1496 1496 1497 1497 1497 1497 1496 1496 1495 1494 1494 1494
1479 1480 1480 1481 1481 1482 1482 1483 1484 1485 1485 1486 1487 1488 1488 1488 1489 1489 1490 1490 1491 1491 1492 1492 1493 1493 1493 1493 1493 1494 1493 1493 1493 1494 1494 1494 1494 1493 1493 1492 1492 1491 1491
1478 1478 1478 1479 1479 1480 1480 1480 1481 1482 1483 1484 1484 1484 1485 1485 1486 1486 1487 1487 1488 1488 1489 1489 1490 1490 1490 1490 1491 1491 1491 1490 1491 1491 1491 1491 1491 1491 1490 1490 1489 1489 1488
1476 1476 1477 1477 1478 1478 1478 1478 1479 1480 1480 1481 1481 1482 1481 1483 1483 1484 1484 1485 1485 1485 1485 1486 1486 1487 1487 1488 1488 1488 1488 1488 1488 1488 1488 1488 1488 1488 1488 1487 1486 1486 1486
1475 1476 1476 1476 1476 1476 1476 1476 1477 1477 1478 1478 1479 1479 1480 1480 1480 1481 1481 1482 1482 1482 1483 1483 1483 1483 1484 1484 1485 1485 1485 1485 1485 1485 1485 1485 1485 1485 1485 1484 1484 1483 1482
1474 1475 1475 1475 1475 1475 1475 1475 1475 1476 1476 1476 1477 1478 1478 1478 1478 1479 1479 1479 1479 1480 1480 1480 1480 1480 1481 1481 1481 1481 1481 1482 1482 1482 1482 1482 1482 1481 1481 1481 1480 1480 1479
1474 1474 1474 1474 1474 1474 1474 1474 1474 1475 1475 1475 1475 1476 1476 1476 1477 1477 1477 1477 1477 1477 1477 1477 1478 1478 1477 1478 1479 1478 1478 1478 1478 1478 1478 1478 1478 1478 1477 1477 1477 1477 1477
1472 1472 1473 1473 1473 1473 1473 1473 1473 1474 1474 1474 1474 1474 1474 1475 1475 1475 1475 1475 1476 1476 1476 1476 1476 1475 1476 1476 1476 1476 1475 1475 1475 1475 1475 1474 1474 1474 1474 1474 1474 1474 1473